EW9318 Weather Reports


time (UTC)temp
F
wind
direction
speed
knots
gust
knots
rain 1hr
in
rain 24hr
in
rain mn
in
humidity
%
barometer
mb
20260504050516 50 185 4.3 9.6 0.00 0.00 0.00 76 1004.8
20260504050016 50 189 4.3 9.6 0.00 0.00 0.00 77 1004.8
20260504045516 50 179 4.3 9.6 0.00 0.00 0.00 77 1004.8
20260504045016 50 182 3.5 7.8 0.00 0.00 0.00 77 1004.9
20260504044516 50 186 3.5 7.8 0.00 0.00 0.00 77 1004.9
20260504044016 50 172 3.5 9.6 0.00 0.00 0.00 77 1005.0
20260504043516 50 166 4.3 9.6 0.00 0.00 0.00 77 1005.0
20260504043016 50 168 3.5 7.8 0.00 0.00 0.00 77 1005.1
20260504042516 50 185 3.5 13.9 0.00 0.00 0.00 77 1005.1
20260504042056 49 173 4.3 13.9 0.00 0.00 0.00 78 1005.1
20260504041537 49 174 3.5 9.6 0.00 0.00 0.00 77 1005.0
20260504041016 49 168 3.5 9.6 0.00 0.00 0.00 78 1005.1
20260504040516 49 169 4.3 8.7 0.00 0.00 0.00 78 1005.2
20260504040016 49 155 2.6 8.7 0.00 0.00 0.00 77 1005.2
20260504035517 49 158 2.6 8.7 0.00 0.00 0.00 77 1005.3
20260504035016 49 160 2.6 8.7 0.00 0.00 0.00 77 1005.3
20260504034536 49 168 2.6 7.8 0.00 0.00 0.00 77 1005.3
20260504034017 49 164 2.6 8.7 0.00 0.00 0.00 77 1005.3
20260504033516 49 166 2.6 8.7 0.00 0.00 0.00 77 1005.4
20260504033017 49 157 2.6 7.8 0.00 0.00 0.00 77 1005.5
20260504032516 49 178 2.6 7.8 0.00 0.00 0.00 76 1005.4
20260504032016 49 160 3.5 7.8 0.00 0.00 0.00 76 1005.5
20260504031516 49 169 3.5 7.8 0.00 0.00 0.00 76 1005.5
20260504031016 49 156 3.5 9.6 0.00 0.00 0.00 76 1005.5
20260504030516 49 165 4.3 9.6 0.00 0.00 0.00 76 1005.6
20260504030016 49 161 3.5 8.7 0.00 0.00 0.00 75 1005.6
20260504025516 49 164 3.5 8.7 0.00 0.00 0.00 75 1005.6
20260504025016 50 165 3.5 8.7 0.00 0.00 0.00 75 1005.4
20260504024517 50 164 2.6 8.7 0.00 0.00 0.00 74 1005.4
20260504024016 50 156 4.3 8.7 0.00 0.00 0.00 74 1005.4
20260504023516 50 155 4.3 7.8 0.00 0.00 0.00 74 1005.3
20260504023016 50 162 2.6 7.8 0.00 0.00 0.00 73 1005.4
20260504022536 50 166 3.5 8.7 0.00 0.00 0.00 73 1005.4
20260504022016 50 159 4.3 11.3 0.00 0.00 0.00 73 1005.3
20260504021516 50 173 5.2 12.2 0.00 0.00 0.00 72 1005.4
20260504021016 50 162 4.3 12.2 0.00 0.00 0.00 72 1005.4
20260504020517 51 172 3.5 9.6 0.00 0.00 0.00 72 1005.5
20260504020017 51 159 3.5 8.7 0.00 0.00 0.00 71 1005.4
20260504015516 51 168 4.3 8.7 0.00 0.00 0.00 71 1005.5
20260504015016 51 169 4.3 8.7 0.00 0.00 0.00 71 1005.4
20260504014516 51 162 4.3 10.4 0.00 0.00 0.00 70 1005.3
20260504014017 51 167 5.2 10.4 0.00 0.00 0.00 70 1005.2
20260504013516 51 163 5.2 13.0 0.00 0.00 0.00 70 1005.2
20260504013016 51 156 6.1 13.0 0.00 0.00 0.00 69 1005.1
20260504012517 51 165 5.2 13.0 0.00 0.00 0.00 69 1005.1
20260504012016 52 171 6.1 13.9 0.00 0.00 0.00 69 1005.2
20260504011517 52 170 6.1 13.9 0.00 0.00 0.00 68 1005.2
20260504011016 52 170 7.0 13.9 0.00 0.00 0.00 68 1005.2
20260504010516 52 171 6.1 13.9 0.00 0.00 0.00 68 1005.3
20260504010036 52 173 6.1 12.2 0.00 0.00 0.00 68 1005.3
20260504005517 52 173 6.1 13.0 0.00 0.00 0.00 67 1005.3
20260504005017 52 171 6.1 13.0 0.00 0.00 0.00 66 1005.3
20260504004516 52 173 6.1 14.8 0.00 0.00 0.00 66 1005.3
20260504004016 53 179 7.0 14.8 0.00 0.00 0.00 66 1005.3
20260504003516 53 168 6.1 13.9 0.00 0.00 0.00 65 1005.4
20260504003016 53 171 7.8 14.8 0.00 0.00 0.00 65 1005.3
20260504002516 53 176 7.0 14.8 0.00 0.00 0.00 64 1005.4
20260504002017 53 181 7.8 14.8 0.00 0.00 0.00 64 1005.5
20260504001516 53 176 5.2 14.8 0.00 0.00 0.00 64 1005.5
20260504001016 54 183 6.1 14.8 0.00 0.00 0.00 63 1005.6
20260504000536 54 191 7.0 14.8 0.00 0.00 0.00 62 1005.7
20260504000037 54 176 7.8 15.6 0.00 0.00 0.00 62 1005.7
20260503235516 54 190 6.1 21.7 0.00 0.00 0.00 62 1005.8
20260503235017 54 179 7.8 21.7 0.00 0.00 0.00 61 1005.7
20260503234537 55 188 8.7 16.5 0.00 0.00 0.00 61 1005.8
20260503234016 55 181 6.1 15.6 0.00 0.00 0.00 60 1005.8
20260503233537 55 188 7.8 19.1 0.00 0.00 0.00 60 1005.8
20260503233036 55 195 10.4 19.1 0.00 0.00 0.00 59 1005.8
20260503232517 55 192 8.7 18.2 0.00 0.00 0.00 59 1005.8
20260503232037 56 193 8.7 16.5 0.00 0.00 0.00 58 1005.9
20260503231516 56 192 7.8 17.4 0.00 0.00 0.00 59 1006.0
20260503231036 56 190 7.8 17.4 0.00 0.00 0.00 58 1006.0
20260503230517 56 188 6.1 17.4 0.00 0.00 0.00 58 1006.1
20260503230016 56 199 7.8 17.4 0.00 0.00 0.00 59 1006.2
20260503225516 55 183 7.0 15.6 0.00 0.00 0.00 60 1006.3
20260503225016 55 193 7.0 16.5 0.00 0.00 0.00 61 1006.4
20260503224516 54 190 9.6 22.6 0.00 0.00 0.00 60 1006.5
20260503224016 54 179 11.3 22.6 0.00 0.00 0.00 60 1006.6
20260503223536 55 193 7.0 16.5 0.00 0.00 0.00 61 1006.6
20260503223036 54 169 7.0 16.5 0.00 0.00 0.00 62 1006.8
20260503222516 54 179 8.7 14.8 0.00 0.00 0.00 62 1006.9
20260503222016 54 167 8.7 16.5 0.00 0.00 0.00 62 1007.0
20260503221517 53 162 8.7 16.5 0.00 0.00 0.00 62 1007.1
20260503221016 53 185 7.0 14.8 0.00 0.00 0.00 63 1007.2
20260503220516 53 184 7.8 19.1 0.00 0.00 0.00 63 1007.3
20260503220016 53 182 9.6 19.1 0.00 0.00 0.00 62 1007.4
20260503215516 53 192 7.8 16.5 0.00 0.00 0.00 63 1007.4
20260503215016 53 179 8.7 15.6 0.00 0.00 0.00 65 1007.4
20260503214517 52 182 6.1 13.9 0.00 0.00 0.00 65 1007.4
20260503214016 52 200 7.8 13.9 0.00 0.00 0.00 65 1007.4
20260503213516 52 170 7.8 13.9 0.00 0.00 0.00 64 1007.5
20260503213016 52 193 5.2 10.4 0.00 0.00 0.00 64 1007.5
20260503212516 52 202 5.2 10.4 0.00 0.00 0.00 64 1007.8
20260503212015 52 208 4.3 8.7 0.00 0.00 0.00 64 1007.6
20260503211516 52 207 4.3 20.0 0.00 0.00 0.00 64 1007.8
20260503211036 52 194 6.1 20.0 0.00 0.00 0.00 63 1007.7
20260503210516 53 201 7.0 13.9 0.00 0.00 0.00 63 1007.8
20260503210016 53 190 8.7 16.5 0.00 0.00 0.00 63 1007.8
20260503205516 53 182 10.4 16.5 0.00 0.00 0.00 63 1007.9
20260503205015 53 198 7.0 15.6 0.00 0.00 0.00 63 1007.9
20260503204516 53 201 7.0 15.6 0.00 0.00 0.00 63 1007.9
20260503204036 53 207 8.7 14.8 0.00 0.00 0.00 62 1008.1
20260503203536 53 201 6.1 14.8 0.00 0.00 0.00 63 1008.2
20260503203016 53 211 5.2 16.5 0.00 0.00 0.00 63 1008.3
20260503202515 53 220 7.8 16.5 0.00 0.00 0.00 62 1008.4
20260503202016 53 229 7.8 15.6 0.00 0.00 0.00 62 1008.6
20260503201556 53 226 7.8 14.8 0.00 0.00 0.00 62 1008.6
20260503201015 53 219 7.0 18.2 0.00 0.00 0.00 61 1008.8
20260503200515 53 235 11.3 18.2 0.00 0.00 0.00 61 1008.8
20260503200016 53 230 8.7 19.1 0.00 0.00 0.00 61 1008.8
20260503195516 53 226 10.4 19.1 0.00 0.00 0.00 61 1008.9
20260503195015 54 236 10.4 17.4 0.00 0.00 0.00 60 1009.0
20260503194535 54 241 7.8 20.0 0.00 0.00 0.00 60 1009.1
20260503194015 54 236 12.2 20.0 0.00 0.00 0.00 59 1009.0
20260503193515 54 236 12.2 24.3 0.00 0.00 0.00 59 1009.2
20260503193016 54 245 13.9 24.3 0.00 0.00 0.00 58 1009.3
20260503192536 54 238 13.9 23.5 0.00 0.00 0.00 57 1009.4
20260503192016 55 240 16.5 23.5 0.00 0.00 0.00 56 1009.4
20260503191515 55 232 13.9 26.1 0.00 0.00 0.00 56 1009.5
20260503191016 55 243 16.5 26.1 0.00 0.00 0.00 55 1009.5
20260503190515 56 252 18.2 26.1 0.00 0.00 0.00 55 1009.4
20260503190015 56 247 18.2 26.1 0.00 0.00 0.00 54 1009.5
20260503185516 56 257 14.8 23.5 0.00 0.00 0.00 53 1009.5
20260503185035 56 241 13.9 24.3 0.00 0.00 0.00 54 1009.5
20260503184517 57 252 16.5 24.3 0.00 0.00 0.00 51 1009.5
20260503184015 58 251 15.6 27.8 0.00 0.00 0.00 51 1009.4
20260503183536 58 251 14.8 27.8 0.00 0.00 0.00 51 1009.5
20260503183016 58 228 14.8 26.1 0.00 0.00 0.00 50 1009.7
20260503182515 58 249 15.6 27.8 0.00 0.00 0.00 49 1009.5
20260503182016 58 244 18.2 27.8 0.00 0.00 0.00 49 1009.6
20260503181515 58 250 16.5 26.1 0.00 0.00 0.00 48 1009.5
20260503181016 58 256 17.4 26.1 0.00 0.00 0.00 49 1009.5
20260503180515 58 237 14.8 26.1 0.00 0.00 0.00 50 1009.7
20260503180015 58 243 16.5 29.5 0.00 0.00 0.00 49 1009.7
20260503175517 58 251 17.4 29.5 0.00 0.00 0.00 49 1009.6
20260503175015 58 247 17.4 28.7 0.00 0.00 0.00 49 1009.6
20260503174516 58 248 17.4 26.1 0.00 0.00 0.00 49 1009.7
20260503174016 58 246 16.5 29.5 0.00 0.00 0.00 50 1009.8
20260503173535 57 248 18.2 29.5 0.00 0.00 0.00 49 1009.9
20260503173015 57 257 13.9 25.2 0.00 0.00 0.00 49 1010.0
20260503172515 57 240 14.8 30.4 0.00 0.00 0.00 48 1010.1
20260503172015 57 238 15.6 30.4 0.00 0.00 0.00 49 1010.2
20260503171515 57 233 14.8 26.9 0.00 0.00 0.00 48 1010.3
20260503171035 57 244 13.9 29.5 0.00 0.00 0.00 49 1010.3
20260503170515 57 241 15.6 29.5 0.00 0.00 0.00 49 1010.3
20260503170136 57 226 13.0 22.6 0.00 0.00 0.00 49 1010.3
20260503150516 53 223 10.4 20.9 0.00 0.00 0.00 48 1011.1
20260503131017 47 227 5.2 8.7 0.00 0.00 0.00 61 1012.0
20260503130517 46 234 5.2 8.7 0.00 0.00 0.00 62 1012.0
20260503110516 38 114 0.0 2.6 0.00 0.00 0.00 72 1011.8
20260503081537 40 201 2.6 5.2 0.00 0.00 0.00 64 1012.3
20260503081017 40 204 0.9 5.2 0.00 0.00 0.00 64 1012.3
20260503080516 40 224 1.7 5.2 0.00 0.00 0.00 63 1012.3
20260503072517 41 201 2.6 7.0 0.00 0.00 0.00 61 1012.5
20260503072017 41 211 3.5 7.0 0.00 0.00 0.00 61 1012.5
20260503071536 41 217 2.6 6.1 0.00 0.00 0.00 61 1012.6
20260503071016 41 196 2.6 6.1 0.00 0.00 0.00 60 1012.6
20260503070516 41 198 1.7 6.1 0.00 0.00 0.00 60 1012.7